Torna al catalogo

ARIANE 40+ R/B

AttivoSSO
NORAD 23561·ROCKET BODY·🇫🇷 France

Lanciato Apr 21, 1995 da Guiana Space Centre

Loading…

Prossimi Passaggi (prossime 24 ore)

TLE

AggiornatoSource: Space-Track

Epoca: Sep 14, 2026, 11:31 UTC

1 23561U 95021B   26257.48037640  .00000167  00000-0  66862-4 0  9994
2 23561  98.4334 326.2318 0005617 300.6531  69.9483 14.39872470646417

Traccia ARIANE 40+ R/B in tempo reale con AllMySat

Download on the App Store